IGO581 EDDF-EDDS

Flight info

Callsign IGO581
Flight time N/A
Altitude 17000
Route ANEKI2L/18 ANEKI Y163 NEKLO Y171 INKAM N850 KRH T128 BADSO BADSO2A
Aircraft A320/M-SDE3FGHIRWY/LB1

Departure

Time 2026-04-15 21:26
Airport Frankfurt Main Airport (EDDF)

Arrival

Time N/A
Airport Stuttgart Airport (EDDS)
Time Latitude Longitude Altitude Speed Heading
2026-04-15 20:35 50.04600 8.56791 379 ft 0 kts 294°
2026-04-15 21:14 50.04595 8.56809 379 ft 3 kts 291°
2026-04-15 21:14 50.04588 8.56838 379 ft 3 kts 281°
2026-04-15 21:14 50.04587 8.56868 379 ft 3 kts 259°
2026-04-15 21:15 50.04593 8.56893 379 ft 2 kts 212°
2026-04-15 21:15 50.04600 8.56900 379 ft 1 kts 205°
2026-04-15 21:15 50.04601 8.56900 379 ft 0 kts 205°
2026-04-15 21:18 50.04600 8.56900 378 ft 0 kts 205°
2026-04-15 21:19 50.04592 8.56894 378 ft 3 kts 204°
2026-04-15 21:19 50.04568 8.56877 378 ft 5 kts 204°
2026-04-15 21:19 50.04527 8.56857 378 ft 7 kts 187°
2026-04-15 21:19 50.04467 8.56852 378 ft 10 kts 182°
2026-04-15 21:20 50.04395 8.56846 378 ft 10 kts 188°
2026-04-15 21:20 50.04327 8.56827 378 ft 9 kts 185°
2026-04-15 21:20 50.04279 8.56872 378 ft 8 kts 107°
2026-04-15 21:20 50.04292 8.56970 378 ft 11 kts 71°
2026-04-15 21:21 50.04320 8.57089 378 ft 13 kts 70°
2026-04-15 21:21 50.04355 8.57233 378 ft 15 kts 70°
2026-04-15 21:21 50.04391 8.57386 378 ft 10 kts 70°
2026-04-15 21:21 50.04412 8.57473 378 ft 6 kts 70°
2026-04-15 21:22 50.04426 8.57532 378 ft 7 kts 71°
2026-04-15 21:22 50.04423 8.57613 378 ft 9 kts 118°
2026-04-15 21:22 50.04390 8.57654 378 ft 5 kts 154°
2026-04-15 21:22 50.04380 8.57661 378 ft 0 kts 156°
2026-04-15 21:23 50.04371 8.57667 378 ft 3 kts 156°
2026-04-15 21:23 50.04346 8.57683 378 ft 5 kts 157°
2026-04-15 21:24 50.04321 8.57697 378 ft 6 kts 172°
2026-04-15 21:24 50.04274 8.57676 378 ft 8 kts 226°
2026-04-15 21:24 50.04262 8.57646 378 ft 0 kts 245°
2026-04-15 21:25 50.04262 8.57645 378 ft 1 kts 245°
2026-04-15 21:25 50.04239 8.57560 378 ft 27 kts 248°
2026-04-15 21:26 50.04084 8.56913 379 ft 100 kts 249°
2026-04-15 21:26 50.03766 8.55581 381 ft 159 kts 250°
2026-04-15 21:26 50.03381 8.53954 928 ft 159 kts 250°
2026-04-15 21:26 50.02980 8.52251 1296 ft 178 kts 250°
2026-04-15 21:27 50.02534 8.50371 1686 ft 192 kts 250°
2026-04-15 21:27 50.02012 8.48430 1784 ft 195 kts 238°
2026-04-15 21:27 50.01030 8.47026 1785 ft 195 kts 206°
2026-04-15 21:27 49.99722 8.46521 1793 ft 195 kts 180°
2026-04-15 21:28 49.98441 8.47094 1796 ft 195 kts 147°
2026-04-15 21:28 49.97556 8.48652 1806 ft 194 kts 114°
2026-04-15 21:28 49.97407 8.50703 1809 ft 195 kts 77°
2026-04-15 21:28 49.97992 8.52570 1834 ft 194 kts 58°
2026-04-15 21:29 49.98675 8.54392 1850 ft 194 kts 61°
2026-04-15 21:29 49.99235 8.56296 1862 ft 194 kts 69°
2026-04-15 21:29 49.99728 8.58250 1880 ft 194 kts 67°
2026-04-15 21:29 50.00273 8.60171 1899 ft 194 kts 65°
2026-04-15 21:30 50.00832 8.62072 1907 ft 194 kts 66°
2026-04-15 21:30 50.01371 8.64003 1895 ft 194 kts 68°
2026-04-15 21:30 50.01861 8.65955 1884 ft 194 kts 69°
2026-04-15 21:30 50.02371 8.67818 1880 ft 180 kts 57°
2026-04-15 21:31 50.04350 8.69183 1670 ft 153 kts 347°
2026-04-15 21:31 50.05249 8.68401 1549 ft 149 kts 313°
2026-04-15 21:32 50.05767 8.65502 1243 ft 139 kts 266°
2026-04-15 21:32 50.05618 8.64016 1093 ft 139 kts 258°
2026-04-15 21:32 50.05419 8.62551 941 ft 138 kts 256°
2026-04-15 21:32 50.05110 8.61139 777 ft 138 kts 249°
2026-04-15 21:33 50.04766 8.59745 608 ft 138 kts 249°
2026-04-15 21:33 50.04432 8.58357 440 ft 137 kts 249°
2026-04-15 21:33 50.04114 8.57035 378 ft 112 kts 249°
2026-04-15 21:33 50.03901 8.56150 378 ft 64 kts 250°
2026-04-15 21:34 50.03798 8.55716 378 ft 22 kts 251°
2026-04-15 21:34 50.03778 8.55594 378 ft 9 kts 280°
2026-04-15 21:34 50.03819 8.55533 378 ft 9 kts 336°
2026-04-15 21:34 50.03836 8.55522 378 ft 1 kts 337°
2026-04-15 21:35 50.03850 8.55513 378 ft 3 kts 338°
2026-04-15 21:35 50.03865 8.55503 378 ft 2 kts 338°
2026-04-15 21:35 50.03880 8.55494 378 ft 0 kts 340°
2026-04-15 21:35 50.03884 8.55492 378 ft 0 kts 340°
2026-04-15 21:36 50.03893 8.55487 378 ft 3 kts 340°
2026-04-15 21:36 50.03918 8.55485 378 ft 5 kts 14°
2026-04-15 21:36 50.03944 8.55524 378 ft 7 kts 64°
2026-04-15 21:36 50.03965 8.55602 378 ft 9 kts 70°
2026-04-15 21:37 50.03990 8.55706 378 ft 12 kts 70°
2026-04-15 21:37 50.04021 8.55837 378 ft 14 kts 70°
2026-04-15 21:37 50.04058 8.55993 378 ft 17 kts 69°
2026-04-15 21:37 50.04101 8.56174 378 ft 19 kts 70°
2026-04-15 21:38 50.04151 8.56380 378 ft 22 kts 69°
2026-04-15 21:38 50.04198 8.56579 378 ft 18 kts 69°
2026-04-15 21:38 50.04236 8.56737 378 ft 8 kts 69°
2026-04-15 21:38 50.04276 8.56805 378 ft 9 kts 17°
2026-04-15 21:39 50.04347 8.56830 378 ft 12 kts 12°
2026-04-15 21:39 50.04437 8.56848 378 ft 14 kts
2026-04-15 21:39 50.04511 8.56852 378 ft 7 kts
2026-04-15 21:39 50.04557 8.56867 378 ft 4 kts 21°
2026-04-15 21:40 50.04585 8.56847 378 ft 6 kts 292°
2026-04-15 21:40 50.04590 8.56824 378 ft 2 kts 292°
2026-04-15 21:40 50.04599 8.56792 378 ft 3 kts 294°
2026-04-15 21:40 50.04604 8.56776 378 ft 1 kts 294°
2026-04-15 21:41 50.04605 8.56773 378 ft 0 kts 294°